Weather Roundup
Issued by NWS Chicago, IL

Home | Current Version | Previous Version | Text Only | Print | Product List | Glossary Off
Versions: 1 2 3 4 5 6 7 8 9 10 11 12 13 14 15 16 17 18 19 20 21 22 23 24 25 26 27 28 29 30 31 32 33 34 35 36 37 38 39 40 41 42 43 44 45 46 47 48 49 50

000
NZUS59 KLOT 252306
HRRLOT

CHICAGO AREA WEATHER ROUNDUP
NATIONAL WEATHER SERVICE CHICAGO/ROMEOVILLE IL
600 PM CDT FRI JUL 25 2014

NOTE: "FAIR" INDICATES FEW OR NO CLOUDS BELOW 12,000 FEET WITH NO
SIGNIFICANT WEATHER AND/OR OBSTRUCTIONS TO VISIBILITY.

* THESE STATIONS ARE NOT UNDER NWS QUALITY CONTROL. THEY ALSO MAY NOT
  REPORT WEATHER SUCH AS PRECIPITATION OR FOG.

ILZ005-006-012>014-019>023-260000-
NORTHEAST ILLINOIS

CITY           SKY/WX    TMP DP  RH WIND       PRES   REMARKS
OHARE          PTSUNNY   73  57  57 SW8       29.93F
MIDWAY         PTSUNNY   74  60  61 SW13      29.94F
AURORA         MOSUNNY   71  59  65 S9        29.95S
LANSING*       CLOUDY    72  59  63 SW6       29.96S
JOLIET*        SUNNY     73  58  59 SW6       29.95F
WAUKEGAN       MOSUNNY   74  58  57 S9        29.92F
DUPAGE AIRPORT MOSUNNY   73  60  63 S8        29.93F
WHEELING       CLOUDY    75  58  55 S10       29.94F
KANKAKEE*      SUNNY     74  60  61 S7        29.96S
MORRIS*        SUNNY     74  61  63 S5        29.95S
LEWIS AIRPORT* MOSUNNY   73  58  59 S6        29.95F
NORTHERLY IS     N/A     72  58  61 S9          N/A
$$

WIZ051-052-058>065-066-070>072-260000-
SOUTHEAST WISCONSIN

CITY           SKY/WX    TMP DP  RH WIND       PRES   REMARKS
MILWAUKEE      PTSUNNY   73  58  59 SW10      29.91F
KENOSHA*       PTSUNNY   75  60  59 SW8       29.92F
RACINE*        CLOUDY    73  58  59 SW8       29.93F
BURLINGTON     PTSUNNY   71  59  67 SW8       29.92F
WAUKESHA       PTSUNNY   72  57  60 SW9       29.93F
WEST BEND      PTSUNNY   72  59  64 SW6       29.90F
$$

INZ001>003-010>013-019-020-260000-
NORTHWEST INDIANA

CITY           SKY/WX    TMP DP  RH WIND       PRES   REMARKS
GARY*          CLOUDY    73  59  60 SW9       29.96R
MICHIGAN CITY* NOT AVBL
RENSSELAER*    NOT AVBL
VALPARAISO     CLOUDY    71  57  61 S6        29.98S
$$

LMZ740>746-260000-
SOUTHERN LAKE MICHIGAN

STATION/POSITION TIME  SKY/WX   TEMP WIND        PRES    VSBY
                                AIR  DIR/SP/G
                 (UTC)          (F)  (DEG/KT/KT) (MB)    (MI)
HARRISON CRIB    2300            71  190/ 11/ 13   N/A
BURNHAM HARBOR   2300            72  200/  8/ 12   N/A
CALUMET HARBOR   2200            72  220/  6/  8 1013.0S
BURNS HARBOR     2200            72  190/ 10/ 13 1014.9S
MICHIGAN CITY    2300            71  180/  9/ 12   N/A
$$

ABBREVIATIONS USED IN REMARKS
   TC - TEMPERATURE IN CELSIUS
  WCI - WIND CHILL INDEX
   HX - HEAT INDEX
  VSB - VISIBILITY
$$



USA.gov is the U.S. government's official web portal to all federal, state and local government web resources and services.